Weather History for KCCR - August, 2014

Change the Weather History Date:

Friday, August 29, 2014

  Actual Average Record
Temperature  
Mean Temperature 74 °F 72 °F  
Max Temperature 88 °F 87 °F 105 °F (2008)
Min Temperature 60 °F 58 °F 53 °F (2010)
Degree Days  
Heating Degree Days 0    
Month to date heating degree days 0  
Since 1 June heating degree days 6  
Since 1 July heating degree days 0  
Cooling Degree Days 9    
Month to date cooling degree days 211  
Year to date cooling degree days 775  
Since 1 June cooling degree days 653  
Growing Degree Days 24 (Base 50)    
Moisture  
Dew Point 55 °F    
Average Humidity 59    
Maximum Humidity 84    
Minimum Humidity 33    
Precipitation  
Precipitation 0.00 in - 0.00 in (2015)
Month to date precipitation 0.09  
Year to date precipitation 8.41  
Since 1 July precipitation 0.09  
Sea Level Pressure  
Sea Level Pressure 29.86 in    
Wind  
Wind Speed 8 mph (SW)    
Max Wind Speed 17 mph    
Max Gust Speed 26 mph    
Visibility 10 miles    
Events      
T = Trace of Precipitation, MM = Missing Value Source: NWS Daily Summary

Daily Weather History Graph

Daily Weather History Graph

Search for Another Location

Airport or City:

Trip Planner

Search our weather history database for the weather conditions in past years. The results will help you decide how hot, cold, wet, or windy it might be!

Date:

Astronomy

Aug. 29, 2014 Rise Set
Actual Time 6:35 AM PDT 7:41 PM PDT
Civil Twilight 6:08 AM PDT 8:08 PM PDT
Nautical Twilight 5:36 AM PDT 8:41 PM PDT
Astronomical Twilight 5:02 AM PDT 9:14 PM PDT
Moon 10:25 AM PDT (8/29) 9:47 PM PDT (8/29)
Length of Visible Light 14h 00m
Length of Day
13h 06m
Waxing Crescent, 16% of the Moon is Illuminated
Aug 29
Waxing Crescent
Sep 2
First Quarter
Sep 8
Full
Sep 15
Last Quarter
Sep 23
New

Hourly Weather History & Observations

Time (PDT) Temp. Heat Index Dew Point Humidity Pressure Visibility Wind Dir Wind Speed Gust Speed Precip Events Conditions
12:53 AM 62.1 °F - 55.0 °F 78% 29.89 in 10.0 mi SSW 13.8 mph - N/A   Clear
1:53 AM 61.0 °F - 55.9 °F 83% 29.89 in 10.0 mi SSW 10.4 mph - N/A   Clear
2:53 AM 61.0 °F - 55.9 °F 83% 29.88 in 10.0 mi SSW 13.8 mph 18.4 mph N/A   Clear
3:53 AM 60.1 °F - 55.9 °F 86% 29.88 in 10.0 mi SSW 10.4 mph - N/A   Clear
4:53 AM 60.1 °F - 55.9 °F 86% 29.88 in 10.0 mi SSW 8.1 mph - N/A   Clear
5:53 AM 60.1 °F - 55.9 °F 86% 29.88 in 10.0 mi SSW 8.1 mph - N/A   Clear
6:53 AM 60.1 °F - 55.9 °F 86% 29.88 in 10.0 mi SW 8.1 mph - N/A   Clear
8:53 AM 64.0 °F - 55.9 °F 75% 29.89 in 10.0 mi SSW 5.8 mph - N/A   Mostly Cloudy
9:53 AM 66.0 °F - 57.0 °F 73% 29.90 in 10.0 mi South 8.1 mph - N/A   Clear
10:53 AM 70.0 °F - 57.0 °F 63% 29.89 in 10.0 mi South 5.8 mph - N/A   Mostly Cloudy
11:53 AM 73.0 °F - 57.0 °F 57% 29.87 in 10.0 mi Calm Calm - N/A   Clear
1:53 PM 81.0 °F 81.1 °F 57.9 °F 45% 29.83 in 10.0 mi NNW 12.7 mph - N/A   Clear
2:53 PM 84.9 °F 83.7 °F 55.9 °F 37% 29.82 in 10.0 mi West 11.5 mph - N/A   Clear
3:53 PM 87.1 °F 85.7 °F 55.9 °F 35% 29.81 in 10.0 mi WNW 6.9 mph - N/A   Clear
4:53 PM 86.0 °F 84.9 °F 57.0 °F 37% 29.81 in 10.0 mi West 9.2 mph - N/A   Clear
5:53 PM 82.9 °F 81.8 °F 53.1 °F 36% 29.82 in 10.0 mi WSW 9.2 mph - N/A   Clear
6:53 PM 79.0 °F - 50.0 °F 36% 29.81 in 10.0 mi WSW 8.1 mph - N/A   Clear
8:53 PM 73.0 °F - 53.1 °F 49% 29.83 in 10.0 mi SSW 9.2 mph - N/A   Clear
9:53 PM 70.0 °F - 53.1 °F 55% 29.83 in 10.0 mi South 9.2 mph - N/A   Clear
10:53 PM 70.0 °F - 52.0 °F 53% 29.84 in 10.0 mi South 10.4 mph - N/A   Clear
11:53 PM 70.0 °F - 52.0 °F 53% 29.84 in 10.0 mi South 8.1 mph - N/A   Clear